Location: Del Oro Observatory
(38.3044°N, 104.8119°W)
Time: 08:39:11
(UTC-06:00)

Daily predictions for brighter satellites

Satellite Brightness Start Highest point End
(mag) Time Altitude Azimuth Time Altitude Azimuth Time Altitude Azimuth
Cosmos 1782 3.4 20:37:05 10° N 20:40:54 39° E 20:44:42 10° SSE
USA 186 1.7 20:39:30 10° SSE 20:42:37 86° ENE 20:45:55 10° N
Cosmos 1356 Rocket 3.6 20:38:23 10° S 20:42:38 82° W 20:46:56 10° N
Cosmos 1452 Rocket 4.0 20:38:37 10° S 20:43:28 39° ESE 20:48:21 10° NE
Cosmos 1674 Rocket 3.9 20:40:08 10° N 20:44:26 46° E 20:48:41 10° SSE
Cosmos 2074 Rocket 4.0 20:38:29 10° S 20:44:45 80° E 20:51:02 10° N
Cosmos 1190 Rocket 4.0 20:43:05 10° NNW 20:48:17 67° ENE 20:53:27 10° SSE
ATLAS 5 CENTAUR R/B 2.8 20:44:57 10° NW 20:51:01 69° WSW 20:57:26 10° SSE
OAO 3 Rocket 4.3 20:49:40 10° SSW 20:53:47 26° SSE 20:57:54 10° E
Resurs 01 Rocket 4.2 20:51:06 10° SW 20:54:24 21° W 20:57:42 10° NW
ISS -3.4 20:51:45 10° SW 20:54:59 81° SE 20:58:15 10° NE
Atlas Centaur 2 2.6 20:52:32 10° WSW 20:55:23 21° S 20:57:58 11° SE
Cosmos 1184 Rocket 4.3 20:53:07 10° SE 20:55:32 19° E 20:57:59 10° NE
Cosmos 1939 Rocket 3.6 20:53:02 10° SE 20:56:34 35° ENE 21:00:09 10° N
SL-08 ROCKET BODY 4.4 20:51:56 10° S 20:57:58 88° E 21:03:56 10° N
Cosmos 1408 3.6 20:55:51 10° SSE 20:58:59 27° E 21:02:07 10° NNE
Sich 1 Rocket 3.7 20:55:42 10° S 21:00:12 62° E 21:04:44 10° NNE
Nadezhda 3 Rocket 4.4 20:57:20 10° N 21:03:28 48° E 21:09:35 10° SSE
CENTAUR R/B 3.8 20:56:00 10° NW 21:03:44 54° WSW 21:11:44 10° S
Meteor 2-6 Rocket 4.3 20:58:04 10° N 21:04:01 77° E 21:09:49 10° SSE
Cosmos 1238 Rocket 3.7 21:01:55 10° NNE 21:04:51 26° E 21:07:26 14° SE
Coronas F rocket 3.9 21:04:57 10° SW 21:07:10 24° WNW 21:09:24 10° NNW
SPOT 5 3.9 21:04:32 12° SE 21:08:52 35° ENE 21:13:42 10° N
Cosmos 1825 2.7 21:06:25 10° SSE 21:10:00 40° E 21:13:35 10° NNE
TIMED 4.5 21:07:04 10° SSW 21:11:25 85° ESE 21:15:49 10° NNE
COSMOS 2406 4.0 21:07:47 10° NNW 21:13:20 51° WSW 21:18:49 10° S
Cosmos 2084 3.2 21:10:12 10° SW 21:14:04 82° WNW 21:17:54 10° NNE
Cosmos 1975 Rocket 3.9 21:11:37 10° NNE 21:15:28 31° ENE 21:18:01 18° SE
Cosmos 2278 Rocket 2.2 21:11:02 10° S 21:16:37 65° ESE 21:22:15 10° NNE
Cosmos 1844 Rocket 3.4 21:11:22 10° SW 21:16:56 60° WNW 21:22:32 10° NNE
Cosmos 676 Rocket 4.0 21:13:57 10° NNW 21:19:11 76° ENE 21:23:44 14° SSE
Cosmos 1174 3.0 21:16:49 10° NNW 21:19:58 79° ENE 21:21:43 22° SE
Cosmos 1844 4.0 21:16:27 10° SSW 21:22:12 74° WNW 21:28:02 10° NNE
COS B Rocket 3.2 21:18:56 10° N 21:22:50 55° E 21:25:27 17° SSE
Cosmos 1954 Rocket 4.1 21:17:55 10° NNW 21:23:06 63° ENE 21:27:04 17° SSE
Cosmos 1908 Rocket 3.5 21:19:17 10° S 21:23:40 88° ESE 21:28:09 10° N
Cosmos 1378 Rocket 3.5 21:21:51 10° N 21:26:09 66° E 21:29:29 16° SSE
Cosmos 2341 Rocket 4.0 21:22:45 10° S 21:29:00 68° E 21:35:13 10° NNE
SL-27 R/B 4.4 21:29:17 10° NW 21:32:24 27° W 21:35:26 10° SSW
BREEZE-M DEB (TANK) 4.1 21:21:15 10° WNW 21:35:17 58° NNE 21:38:18 19° E
deb Chang Zheng 4 3.7 21:32:14 10° NNE 21:36:40 83° WNW 21:41:07 10° SSW
Cosmos 2082 Rocket 3.3 21:32:57 10° N 21:37:58 31° ENE 21:40:49 20° ESE
GPS 2-05 Rocket1 3.1 21:35:32 10° WSW 21:39:11 55° S 21:40:33 33° ESE
SL-8 Rocket 4.3 21:34:24 16° SSE 21:39:13 47° E 21:45:09 10° NNE
Cosmos 962 Rocket 4.4 21:33:59 10° S 21:40:07 82° E 21:46:23 10° N
Nimbus 7 Rocket 4.4 21:36:50 10° NNE 21:42:48 88° ESE 21:48:48 10° SSW
USA 245 4.0 21:42:27 28° E 21:43:14 31° ENE 21:46:49 10° N
Timation 2 Rocket 4.0 21:39:58 10° NNW 21:45:54 60° ENE 21:49:12 26° SE
Intercosmos 25 3.1 21:47:33 34° SSE 21:48:48 55° E 21:51:54 10° NNE
Cosmos 1862 4.3 21:46:52 10° SSW 21:50:49 48° W 21:54:48 10° N
H-2A R/B 2.5 21:49:42 18° S 21:52:49 58° WSW 21:57:00 10° NNW
Cosmos 2297 3.7 21:47:22 10° S 21:52:59 66° ESE 21:58:40 10° NNE
Envisat 3.4 21:49:14 14° S 21:53:29 61° W 21:58:31 10° NNW
Cosmos 2151 Rocket 4.2 21:53:44 34° ESE 21:54:43 38° E 21:58:55 10° NNE
COSMOS 2487 2.9 21:52:32 10° NNW 21:56:05 60° WSW 21:57:31 32° S
Cosmos 1606 4.2 21:53:12 10° NNW 21:56:50 36° W 22:00:04 12° SSW
SEDSat Delta rocket 4.1 21:54:01 10° SW 21:56:52 24° S 21:56:52 24° S
Cosmos 1295 Rocket 4.4 21:51:40 11° S 21:57:50 82° E 22:04:08 10° N
NOAA 11 4.5 21:57:39 31° SE 22:00:01 52° ENE 22:05:20 10° N
CZ-4 R/B 4.2 21:57:31 10° NNE 22:01:56 41° E 22:02:41 38° SE
APEX 3.6 21:58:41 10° SSW 22:02:27 78° WNW 22:07:27 10° NNE
Cosmos 614 Rocket 3.9 21:59:50 10° NNW 22:04:54 65° ENE 22:06:40 39° SE
CZ-4 SHROUD 3.2 22:05:13 64° SSW 22:05:33 74° W 22:08:39 10° NNW
PSLV R/B 3.2 22:05:41 60° SW 22:05:55 64° W 22:08:51 10° NNW
Cosmos 1420 Rocket 4.3 22:00:44 10° SSW 22:05:56 67° WNW 22:11:09 10° NNE
MetOp-B 4.2 22:06:49 27° S 22:09:47 77° WSW 22:15:10 10° NNW
CZ-4C R/B 4.2 22:17:11 34° ENE 22:17:11 34° ENE 22:20:52 10° N
Cosmos 1140 Rocket 3.8 22:12:17 10° NNW 22:17:21 61° WSW 22:19:38 32° S
Landsat 7 4.2 22:19:26 42° E 22:20:09 45° ENE 22:24:42 10° N
Cosmos 2366 rocket 3.9 22:16:58 30° S 22:20:13 73° E 22:26:32 10° N
H-2A R/B 2.6 22:22:52 39° ESE 22:23:58 44° ENE 22:29:00 10° N
Cosmos 2369 Rocket 4.3 22:26:50 11° ENE 22:26:50 11° ENE 22:27:12 10° ENE
Okean 2 Rocket 4.4 22:22:31 11° SW 22:26:25 37° WNW 22:30:31 10° N
CZ-4B R/B 3.4 22:22:52 10° N 22:27:47 76° WNW 22:30:09 30° SSW
SL-08 RB Rocket 3.6 22:27:36 60° SSE 22:28:25 82° ENE 22:33:04 10° N
USA 234 3.5 22:23:01 10° ENE 22:29:11 43° SE 22:30:13 40° SSE
ARGOS 3.1 22:28:02 44° S 22:29:49 84° WSW 22:35:12 10° NNW
YAOGAN 6 3.7 22:30:30 34° WSW 22:31:00 36° W 22:34:17 10° NNW
Cosmos 1242 Rocket 3.9 22:28:06 10° NNW 22:31:28 34° W 22:32:16 30° WSW
ISS -0.2 22:29:37 10° WNW 22:31:47 16° NNW 22:33:56 10° NNE
Timation 1 Rocket 4.2 22:29:58 36° S 22:32:27 69° ESE 22:38:26 10° NNE
CZ-3 Stage 3 4.5 14:30:54 10° SSW 22:32:38 63° SSW 22:37:00 35° SE
Terra 2.2 22:35:40 45° E 22:35:51 46° ENE 22:40:25 10° N
OAO 3 Rocket 3.6 22:32:05 10° WSW 22:36:05 47° SSW 22:36:05 47° SSW
SPOT 1/Viking Rocket 3.9 22:37:46 39° SSW 22:39:30 58° W 22:44:40 10° NNW
Meteor 1-20 Rocket 4.0 22:43:06 57° SSE 22:44:14 78° E 22:49:46 10° NNE
Spot 4 4.3 22:50:39 49° ENE 22:50:39 49° ENE 22:55:13 10° N
CARTOSAT-1 3.7 22:52:52 64° NNE 22:52:52 64° NNE 22:56:43 10° N
Okean 1 4.0 22:51:10 10° N 22:54:20 50° NNE 22:54:20 50° NNE
DELTA 2 DEB (DPAF) 4.2 22:56:30 75° W 22:56:30 75° W 23:00:52 10° NNW
Cosmos 1833 Rocket 2.6 22:52:50 10° NNW 22:58:27 74° WSW 22:59:10 65° SSW
Lacrosse 5 2.9 23:04:10 34° NE 23:04:10 34° NE 23:07:03 10° NE
Cosmos 1727 Rocket 4.2 22:59:22 10° NNW 23:05:28 62° W 23:07:08 46° SSW
Cosmos 1536 Rocket 4.3 23:01:57 10° NNW 23:06:14 45° W 23:06:19 45° W
Iridium 4 Rocket 4.3 23:09:36 10° N 23:14:58 47° ENE 23:14:58 47° ENE
Cosmos 1812 4.1 23:11:50 10° NNW 23:14:33 38° NW 23:14:33 38° NW
ASTEX 1 3.5 23:13:14 10° N 23:17:44 73° N 23:17:44 73° N
USA 229 DEB 4.0 23:12:48 10° NW 23:19:46 59° WSW 23:20:58 52° SSW
USA 229 3.9 23:12:54 10° NW 23:19:52 59° WSW 23:21:04 53° SSW
Cosmos 2082 Rocket 3.2 23:16:55 10° NW 23:22:03 35° WSW 23:22:40 34° WSW
Meteor 2-4 Rocket 4.2 23:25:32 10° N 23:30:10 47° NE 23:30:10 47° NE
Lacrosse 5 rocket 3.8 23:38:52 15° NNE 23:38:52 15° NNE 23:39:42 10° NNE
Cosmos 1821 Rocket 3.8 23:36:41 87° SE 23:36:45 87° E 23:43:01 10° N
Meteor 1-13 Rocket 4.3 23:31:30 10° NNW 23:37:28 74° W 23:37:28 74° W
Cosmos 1605 Rocket 4.4 23:38:08 50° ENE 23:38:08 50° ENE 23:43:43 10° NNE
NOSS 3-1 (A) 4.2 23:30:42 10° NNW 23:38:17 63° NE 23:40:02 52° ESE
Cosmos 1025 Rocket 4.3 23:36:10 10° N 23:38:57 38° N 23:38:57 38° N
Meteor 2-21 Rocket 4.3 23:41:15 84° NE 23:41:15 84° NE 23:47:20 10° N
Meteor 2-16 Rocket 4.5 23:42:36 67° ENE 23:42:36 67° ENE 23:48:09 10° NNE
Cosmos 2285 Rocket 3.9 23:47:10 77° ENE 23:47:10 77° ENE 23:53:11 10° NNE
Cosmos 1934 Rocket 3.9 23:47:59 80° NNE 23:47:59 80° NNE 23:53:42 10° N
Meteor 1-11 Rocket 4.0 23:49:24 63° W 23:49:25 63° W 23:55:10 10° N
BREEZE-M TANK 4.0 23:51:30 10° WNW 23:56:11 38° NW 23:56:11 38° NW
